Year,Month,Day,Hour,Minute,Value (Times are PST for temperature in C)
2010,08,15,00,00,20.30
2010,08,15,00,01,20.30
2010,08,15,00,02,20.30
2010,08,15,00,03,20.30
2010,08,15,00,04,20.30
2010,08,15,00,05,20.30
2010,08,15,00,06,20.30
2010,08,15,00,07,20.30
2010,08,15,00,08,20.30
2010,08,15,00,09,20.30
2010,08,15,00,10,20.30
2010,08,15,00,11,20.30
2010,08,15,00,12,20.30
2010,08,15,00,13,20.30
2010,08,15,00,14,20.30
2010,08,15,00,15,20.30
2010,08,15,00,16,20.30
2010,08,15,00,17,20.30
2010,08,15,00,18,20.30
2010,08,15,00,19,20.20
2010,08,15,00,20,20.20
2010,08,15,00,21,20.20
2010,08,15,00,22,20.10
2010,08,15,00,23,20.10
2010,08,15,00,24,20.10
2010,08,15,00,25,20.10
2010,08,15,00,26,20.10
2010,08,15,00,27,20.10
2010,08,15,00,28,20.10
2010,08,15,00,29,20.10
2010,08,15,00,30,20.10
2010,08,15,00,31,20.00
2010,08,15,00,32,20.00
2010,08,15,00,33,20.00
2010,08,15,00,34,19.90
2010,08,15,00,35,19.90
2010,08,15,00,36,19.80
2010,08,15,00,37,19.80
2010,08,15,00,38,19.70
2010,08,15,00,39,19.70
2010,08,15,00,40,19.60
2010,08,15,00,41,19.50
2010,08,15,00,42,19.40
2010,08,15,00,43,19.30
2010,08,15,00,44,19.30
2010,08,15,00,45,19.20
2010,08,15,00,46,19.20
2010,08,15,00,47,19.20
2010,08,15,00,48,19.10
2010,08,15,00,49,19.10
2010,08,15,00,50,19.10
2010,08,15,00,51,19.00
2010,08,15,00,52,19.00
2010,08,15,00,53,18.90
2010,08,15,00,54,18.90
2010,08,15,00,55,18.90
2010,08,15,00,56,18.80
2010,08,15,00,57,18.80
2010,08,15,00,58,18.70
2010,08,15,00,59,18.70
2010,08,15,01,00,18.70
2010,08,15,01,01,18.60
2010,08,15,01,02,18.60
2010,08,15,01,03,18.60
2010,08,15,01,04,18.60
2010,08,15,01,05,18.60
2010,08,15,01,06,18.60
2010,08,15,01,07,18.50
2010,08,15,01,08,18.50
2010,08,15,01,09,18.50
2010,08,15,01,10,18.40
2010,08,15,01,11,18.40
2010,08,15,01,12,18.40
2010,08,15,01,13,18.40
2010,08,15,01,14,18.30
2010,08,15,01,15,18.30
2010,08,15,01,16,18.30
2010,08,15,01,17,18.30
2010,08,15,01,18,18.30
2010,08,15,01,19,18.30
2010,08,15,01,20,18.30
2010,08,15,01,21,18.30
2010,08,15,01,22,18.30
2010,08,15,01,23,18.30
2010,08,15,01,24,18.30
2010,08,15,01,25,18.40
2010,08,15,01,26,18.40
2010,08,15,01,27,18.40
2010,08,15,01,28,18.40
2010,08,15,01,29,18.40
2010,08,15,01,30,18.40
2010,08,15,01,31,18.40
2010,08,15,01,32,18.40
2010,08,15,01,33,18.40
2010,08,15,01,34,18.30
2010,08,15,01,35,18.30
2010,08,15,01,36,18.30
2010,08,15,01,37,18.30
2010,08,15,01,38,18.30
2010,08,15,01,39,18.30
2010,08,15,01,40,18.40
2010,08,15,01,41,18.40
2010,08,15,01,42,18.40
2010,08,15,01,43,18.40
2010,08,15,01,44,18.40
2010,08,15,01,45,18.40
2010,08,15,01,46,18.50
2010,08,15,01,47,18.50
2010,08,15,01,48,18.50
2010,08,15,01,49,18.50
2010,08,15,01,50,18.50
2010,08,15,01,51,18.50
2010,08,15,01,52,18.50
2010,08,15,01,53,18.50
2010,08,15,01,54,18.50
2010,08,15,01,55,18.40
2010,08,15,01,56,18.40
2010,08,15,01,57,18.40
2010,08,15,01,58,18.40
2010,08,15,01,59,18.40
2010,08,15,02,00,18.40
2010,08,15,02,01,18.30
2010,08,15,02,02,18.30
2010,08,15,02,03,18.30
2010,08,15,02,04,18.30
2010,08,15,02,05,18.30
2010,08,15,02,06,18.20
2010,08,15,02,07,18.20
2010,08,15,02,08,18.20
2010,08,15,02,09,18.20
2010,08,15,02,10,18.20
2010,08,15,02,11,18.20
2010,08,15,02,12,18.10
2010,08,15,02,13,18.10
2010,08,15,02,14,18.10
2010,08,15,02,15,18.10
2010,08,15,02,16,18.00
2010,08,15,02,17,18.00
2010,08,15,02,18,18.00
2010,08,15,02,19,18.00
2010,08,15,02,20,18.00
2010,08,15,02,21,18.00
2010,08,15,02,22,18.00
2010,08,15,02,23,17.90
2010,08,15,02,24,17.90
2010,08,15,02,25,17.90
2010,08,15,02,26,17.90
2010,08,15,02,27,17.90
2010,08,15,02,28,17.90
2010,08,15,02,29,17.90
2010,08,15,02,30,17.90
2010,08,15,02,31,17.90
2010,08,15,02,32,17.90
2010,08,15,02,33,17.90
2010,08,15,02,34,17.90
2010,08,15,02,35,17.90
2010,08,15,02,36,17.90
2010,08,15,02,37,17.90
2010,08,15,02,38,17.90
2010,08,15,02,39,17.90
2010,08,15,02,40,17.90
2010,08,15,02,41,17.90
2010,08,15,02,42,17.90
2010,08,15,02,43,17.90
2010,08,15,02,44,17.90
2010,08,15,02,45,17.90
2010,08,15,02,46,17.90
2010,08,15,02,47,17.90
2010,08,15,02,48,17.90
2010,08,15,02,49,17.90
2010,08,15,02,50,17.90
2010,08,15,02,51,17.80
2010,08,15,02,52,17.80
2010,08,15,02,53,17.80
2010,08,15,02,54,17.80
2010,08,15,02,55,17.80
2010,08,15,02,56,17.80
2010,08,15,02,57,17.80
2010,08,15,02,58,17.80
2010,08,15,02,59,17.80
2010,08,15,03,00,17.90
2010,08,15,03,01,17.90
2010,08,15,03,02,17.90
2010,08,15,03,03,17.90
2010,08,15,03,04,17.90
2010,08,15,03,05,17.80
2010,08,15,03,06,17.80
2010,08,15,03,07,17.80
2010,08,15,03,08,17.80
2010,08,15,03,09,17.80
2010,08,15,03,10,17.80
2010,08,15,03,11,17.80
2010,08,15,03,12,17.70
2010,08,15,03,13,17.70
2010,08,15,03,14,17.70
2010,08,15,03,15,17.70
2010,08,15,03,16,17.60
2010,08,15,03,17,17.60
2010,08,15,03,18,17.60
2010,08,15,03,19,17.60
2010,08,15,03,20,17.60
2010,08,15,03,21,17.60
2010,08,15,03,22,17.60
2010,08,15,03,23,17.50
2010,08,15,03,24,17.50
2010,08,15,03,25,17.50
2010,08,15,03,26,17.50
2010,08,15,03,27,17.40
2010,08,15,03,28,17.40
2010,08,15,03,29,17.40
2010,08,15,03,30,17.40
2010,08,15,03,31,17.40
2010,08,15,03,32,17.40
2010,08,15,03,33,17.40
2010,08,15,03,34,17.30
2010,08,15,03,35,17.30
2010,08,15,03,36,17.30
2010,08,15,03,37,17.30
2010,08,15,03,38,17.30
2010,08,15,03,39,17.30
2010,08,15,03,40,17.30
2010,08,15,03,41,17.30
2010,08,15,03,42,17.30
2010,08,15,03,43,17.30
2010,08,15,03,44,17.30
2010,08,15,03,45,17.30
2010,08,15,03,46,17.30
2010,08,15,03,47,17.30
2010,08,15,03,48,17.30
2010,08,15,03,49,17.30
2010,08,15,03,50,17.30
2010,08,15,03,51,17.30
2010,08,15,03,52,17.30
2010,08,15,03,53,17.30
2010,08,15,03,54,17.30
2010,08,15,03,55,17.20
2010,08,15,03,56,17.20
2010,08,15,03,57,17.20
2010,08,15,03,58,17.20
2010,08,15,03,59,17.20
2010,08,15,04,00,17.20
2010,08,15,04,01,17.20
2010,08,15,04,02,17.20
2010,08,15,04,03,17.20
2010,08,15,04,04,17.20
2010,08,15,04,05,17.20
2010,08,15,04,06,17.20
2010,08,15,04,07,17.20
2010,08,15,04,08,17.20
2010,08,15,04,09,17.20
2010,08,15,04,10,17.10
2010,08,15,04,11,17.10
2010,08,15,04,12,17.10
2010,08,15,04,13,17.10
2010,08,15,04,14,17.10
2010,08,15,04,15,17.10
2010,08,15,04,16,17.10
2010,08,15,04,17,17.00
2010,08,15,04,18,17.00
2010,08,15,04,19,17.00
2010,08,15,04,20,17.00
2010,08,15,04,21,16.90
2010,08,15,04,22,16.90
2010,08,15,04,23,16.90
2010,08,15,04,24,16.90
2010,08,15,04,25,16.90
2010,08,15,04,26,16.90
2010,08,15,04,27,16.90
2010,08,15,04,28,16.90
2010,08,15,04,29,16.90
2010,08,15,04,30,16.90
2010,08,15,04,31,16.90
2010,08,15,04,32,16.90
2010,08,15,04,33,16.90
2010,08,15,04,34,16.90
2010,08,15,04,35,16.90
2010,08,15,04,36,16.80
2010,08,15,04,37,16.80
2010,08,15,04,38,16.80
2010,08,15,04,39,16.80
2010,08,15,04,40,16.80
2010,08,15,04,41,16.80
2010,08,15,04,42,16.80
2010,08,15,04,43,16.80
2010,08,15,04,44,16.80
2010,08,15,04,45,16.80
2010,08,15,04,46,16.80
2010,08,15,04,47,16.80
2010,08,15,04,48,16.70
2010,08,15,04,49,16.70
2010,08,15,04,50,16.70
2010,08,15,04,51,16.70
2010,08,15,04,52,16.70
2010,08,15,04,53,16.70
2010,08,15,04,54,16.70
2010,08,15,04,55,16.70
2010,08,15,04,56,16.70
2010,08,15,04,57,16.70
2010,08,15,04,58,16.60
2010,08,15,04,59,16.60
2010,08,15,05,00,16.60
2010,08,15,05,01,16.60
2010,08,15,05,02,16.60
2010,08,15,05,03,16.60
2010,08,15,05,04,16.60
2010,08,15,05,05,16.60
2010,08,15,05,06,16.60
2010,08,15,05,07,16.60
2010,08,15,05,08,16.60
2010,08,15,05,09,16.60
2010,08,15,05,10,16.60
2010,08,15,05,11,16.50
2010,08,15,05,12,16.50
2010,08,15,05,13,16.50
2010,08,15,05,14,16.50
2010,08,15,05,15,16.50
2010,08,15,05,16,16.50
2010,08,15,05,17,16.40
2010,08,15,05,18,16.40
2010,08,15,05,19,16.40
2010,08,15,05,20,16.40
2010,08,15,05,21,16.40
2010,08,15,05,22,16.40
2010,08,15,05,23,16.40
2010,08,15,05,24,16.30
2010,08,15,05,25,16.30
2010,08,15,05,26,16.30
2010,08,15,05,27,16.30
2010,08,15,05,28,16.30
2010,08,15,05,29,16.30
2010,08,15,05,30,16.30
2010,08,15,05,31,16.30
2010,08,15,05,32,16.30
2010,08,15,05,33,16.30
2010,08,15,05,34,16.30
2010,08,15,05,35,16.20
2010,08,15,05,36,16.20
2010,08,15,05,37,16.20
2010,08,15,05,38,16.20
2010,08,15,05,39,16.20
2010,08,15,05,40,16.20
2010,08,15,05,41,16.20
2010,08,15,05,42,16.20
2010,08,15,05,43,16.20
2010,08,15,05,44,16.20
2010,08,15,05,45,16.20
2010,08,15,05,46,16.20
2010,08,15,05,47,16.20
2010,08,15,05,48,16.20
2010,08,15,05,49,16.20
2010,08,15,05,50,16.20
2010,08,15,05,51,16.30
2010,08,15,05,52,16.30
2010,08,15,05,53,16.30
2010,08,15,05,54,16.30
2010,08,15,05,55,16.30
2010,08,15,05,56,16.30
2010,08,15,05,57,16.30
2010,08,15,05,58,16.30
2010,08,15,05,59,16.30
2010,08,15,06,00,16.30
2010,08,15,06,01,16.30
2010,08,15,06,02,16.30
2010,08,15,06,03,16.30
2010,08,15,06,04,16.30
2010,08,15,06,05,16.30
2010,08,15,06,06,16.30
2010,08,15,06,07,16.30
2010,08,15,06,08,16.30
2010,08,15,06,09,16.30
2010,08,15,06,10,16.30
2010,08,15,06,11,16.30
2010,08,15,06,12,16.30
2010,08,15,06,13,16.30
2010,08,15,06,14,16.30
2010,08,15,06,15,16.30
2010,08,15,06,16,16.30
2010,08,15,06,17,16.30
2010,08,15,06,18,16.30
2010,08,15,06,19,16.30
2010,08,15,06,20,16.30
2010,08,15,06,21,16.30
2010,08,15,06,22,16.30
2010,08,15,06,23,16.30
2010,08,15,06,24,16.30
2010,08,15,06,25,16.30
2010,08,15,06,26,16.30
2010,08,15,06,27,16.30
2010,08,15,06,28,16.30
2010,08,15,06,29,16.30
2010,08,15,06,30,16.30
2010,08,15,06,31,16.30
2010,08,15,06,32,16.30
2010,08,15,06,33,16.30
2010,08,15,06,34,16.30
2010,08,15,06,35,16.30
2010,08,15,06,36,16.30
2010,08,15,06,37,16.30
2010,08,15,06,38,16.30
2010,08,15,06,39,16.30
2010,08,15,06,40,16.30
2010,08,15,06,41,16.30
2010,08,15,06,42,16.30
2010,08,15,06,43,16.30
2010,08,15,06,44,16.30
2010,08,15,06,45,16.40
2010,08,15,06,46,16.40
2010,08,15,06,47,16.40
2010,08,15,06,48,16.40
2010,08,15,06,49,16.40
2010,08,15,06,50,16.40
2010,08,15,06,51,16.40
2010,08,15,06,52,16.40
2010,08,15,06,53,16.40
2010,08,15,06,54,16.40
2010,08,15,06,55,16.40
2010,08,15,06,56,16.40
2010,08,15,06,57,16.40
2010,08,15,06,58,16.50
2010,08,15,06,59,16.50
2010,08,15,07,00,16.50
2010,08,15,07,01,16.50
2010,08,15,07,02,16.50
2010,08,15,07,03,16.50
2010,08,15,07,04,16.50
2010,08,15,07,05,16.50
2010,08,15,07,06,16.60
2010,08,15,07,07,16.60
2010,08,15,07,08,16.60
2010,08,15,07,09,16.60
2010,08,15,07,10,16.60
2010,08,15,07,11,16.60
2010,08,15,07,12,16.60
2010,08,15,07,13,16.70
2010,08,15,07,14,16.70
2010,08,15,07,15,16.70
2010,08,15,07,16,16.70
2010,08,15,07,17,16.70
2010,08,15,07,18,16.80
2010,08,15,07,19,16.80
2010,08,15,07,20,16.80
2010,08,15,07,21,16.80
2010,08,15,07,22,16.80
2010,08,15,07,23,16.90
2010,08,15,07,24,16.90
2010,08,15,07,25,17.00
2010,08,15,07,26,17.00
2010,08,15,07,27,17.00
2010,08,15,07,28,17.10
2010,08,15,07,29,17.10
2010,08,15,07,30,17.10
2010,08,15,07,31,17.10
2010,08,15,07,32,17.10
2010,08,15,07,33,17.20
2010,08,15,07,34,17.20
2010,08,15,07,35,17.20
2010,08,15,07,36,17.20
2010,08,15,07,37,17.30
2010,08,15,07,38,17.30
2010,08,15,07,39,17.30
2010,08,15,07,40,17.40
2010,08,15,07,41,17.40
2010,08,15,07,42,17.50
2010,08,15,07,43,17.50
2010,08,15,07,44,17.50
2010,08,15,07,45,17.60
2010,08,15,07,46,17.60
2010,08,15,07,47,17.60
2010,08,15,07,48,17.70
2010,08,15,07,49,17.70
2010,08,15,07,50,17.70
2010,08,15,07,51,17.70
2010,08,15,07,52,17.80
2010,08,15,07,53,17.80
2010,08,15,07,54,17.80
2010,08,15,07,55,17.90
2010,08,15,07,56,17.90
2010,08,15,07,57,18.00
2010,08,15,07,58,18.00
2010,08,15,07,59,18.00
2010,08,15,08,00,18.10
2010,08,15,08,01,18.10
2010,08,15,08,02,18.20
2010,08,15,08,03,18.20
2010,08,15,08,04,18.20
2010,08,15,08,05,18.30
2010,08,15,08,06,18.30
2010,08,15,08,07,18.30
2010,08,15,08,08,18.40
2010,08,15,08,09,18.40
2010,08,15,08,10,18.50
2010,08,15,08,11,18.60
2010,08,15,08,12,18.70
2010,08,15,08,13,18.80
2010,08,15,08,14,18.80
2010,08,15,08,15,18.90
2010,08,15,08,16,19.00
2010,08,15,08,17,19.10
2010,08,15,08,18,19.20
2010,08,15,08,19,19.30
2010,08,15,08,20,19.40
2010,08,15,08,21,19.50
2010,08,15,08,22,19.50
2010,08,15,08,23,19.60
2010,08,15,08,24,19.60
2010,08,15,08,25,19.70
2010,08,15,08,26,19.70
2010,08,15,08,27,19.70
2010,08,15,08,28,19.80
2010,08,15,08,29,19.90
2010,08,15,08,30,19.90
2010,08,15,08,31,20.00
2010,08,15,08,32,20.10
2010,08,15,08,33,20.20
2010,08,15,08,34,20.20
2010,08,15,08,35,20.30
2010,08,15,08,36,20.40
2010,08,15,08,37,20.50
2010,08,15,08,38,20.50
2010,08,15,08,39,20.60
2010,08,15,08,40,20.60
2010,08,15,08,41,20.70
2010,08,15,08,42,20.70
2010,08,15,08,43,20.80
2010,08,15,08,44,20.90
2010,08,15,08,45,21.00
2010,08,15,08,46,21.10
2010,08,15,08,47,21.20
2010,08,15,08,48,21.30
2010,08,15,08,49,21.50
2010,08,15,08,50,21.60
2010,08,15,08,51,21.70
2010,08,15,08,52,21.80
2010,08,15,08,53,22.00
2010,08,15,08,54,22.20
2010,08,15,08,55,22.40
2010,08,15,08,56,22.60
2010,08,15,08,57,22.80
2010,08,15,08,58,22.90
2010,08,15,08,59,23.10
2010,08,15,09,00,23.30
2010,08,15,09,01,23.50
2010,08,15,09,02,23.70
2010,08,15,09,03,23.80
2010,08,15,09,04,24.00
2010,08,15,09,05,24.20
2010,08,15,09,06,24.30
2010,08,15,09,07,24.40
2010,08,15,09,08,24.50
2010,08,15,09,09,24.50
2010,08,15,09,10,24.60
2010,08,15,09,11,24.70
2010,08,15,09,12,24.70
2010,08,15,09,13,24.80
2010,08,15,09,14,24.90
2010,08,15,09,15,24.90
2010,08,15,09,16,25.00
2010,08,15,09,17,25.10
2010,08,15,09,18,25.20
2010,08,15,09,19,25.20
2010,08,15,09,20,25.20
2010,08,15,09,21,25.20
2010,08,15,09,22,25.30
2010,08,15,09,23,25.30
2010,08,15,09,24,25.40
2010,08,15,09,25,25.40
2010,08,15,09,26,25.40
2010,08,15,09,27,25.40
2010,08,15,09,28,25.40
2010,08,15,09,29,25.40
2010,08,15,09,30,25.40
2010,08,15,09,31,25.40
2010,08,15,09,32,25.40
2010,08,15,09,33,25.50
2010,08,15,09,34,25.50
2010,08,15,09,35,25.40
2010,08,15,09,36,25.40
2010,08,15,09,37,25.40
2010,08,15,09,38,25.40
2010,08,15,09,39,25.50
2010,08,15,09,40,25.50
2010,08,15,09,41,25.50
2010,08,15,09,42,25.60
2010,08,15,09,43,25.70
2010,08,15,09,44,25.70
2010,08,15,09,45,25.80
2010,08,15,09,46,25.80
2010,08,15,09,47,25.80
2010,08,15,09,48,25.80
2010,08,15,09,49,25.80
2010,08,15,09,50,25.80
2010,08,15,09,51,25.70
2010,08,15,09,52,25.70
2010,08,15,09,53,25.80
2010,08,15,09,54,25.80
2010,08,15,09,55,25.90
2010,08,15,09,56,25.90
2010,08,15,09,57,25.90
2010,08,15,09,58,26.00
2010,08,15,09,59,26.00
2010,08,15,10,00,26.00
2010,08,15,10,01,26.10
2010,08,15,10,02,26.10
2010,08,15,10,03,26.00
2010,08,15,10,04,25.90
2010,08,15,10,05,25.90
2010,08,15,10,06,25.90
2010,08,15,10,07,25.90
2010,08,15,10,08,25.90
2010,08,15,10,09,25.90
2010,08,15,10,10,25.90
2010,08,15,10,11,25.90
2010,08,15,10,12,25.90
2010,08,15,10,13,25.90
2010,08,15,10,14,26.00
2010,08,15,10,15,25.90
2010,08,15,10,16,25.90
2010,08,15,10,17,25.90
2010,08,15,10,18,25.90
2010,08,15,10,19,25.90
2010,08,15,10,20,25.90
2010,08,15,10,21,25.90
2010,08,15,10,22,25.90
2010,08,15,10,23,25.90
2010,08,15,10,24,25.90
2010,08,15,10,25,25.90
2010,08,15,10,26,25.90
2010,08,15,10,27,25.90
2010,08,15,10,28,25.90
2010,08,15,10,29,25.90
2010,08,15,10,30,25.90
2010,08,15,10,31,25.90
2010,08,15,10,32,25.80
2010,08,15,10,33,25.80
2010,08,15,10,34,25.80
2010,08,15,10,35,25.90
2010,08,15,10,36,25.90
2010,08,15,10,37,25.80
2010,08,15,10,38,25.80
2010,08,15,10,39,25.80
2010,08,15,10,40,25.80
2010,08,15,10,41,25.80
2010,08,15,10,42,25.80
2010,08,15,10,43,25.70
2010,08,15,10,44,25.70
2010,08,15,10,45,25.70
2010,08,15,10,46,25.70
2010,08,15,10,47,25.70
2010,08,15,10,48,25.70
2010,08,15,10,49,25.70
2010,08,15,10,50,25.70
2010,08,15,10,51,25.70
2010,08,15,10,52,25.70
2010,08,15,10,53,25.70
2010,08,15,10,54,25.70
2010,08,15,10,55,25.60
2010,08,15,10,56,25.50
2010,08,15,10,57,25.20
2010,08,15,10,58,25.10
2010,08,15,10,59,25.10
2010,08,15,11,00,25.00
2010,08,15,11,01,24.90
2010,08,15,11,02,24.90
2010,08,15,11,03,24.90
2010,08,15,11,04,24.90
2010,08,15,11,05,24.90
2010,08,15,11,06,25.00
2010,08,15,11,07,24.90
2010,08,15,11,08,24.90
2010,08,15,11,09,24.80
2010,08,15,11,10,24.80
2010,08,15,11,11,24.90
2010,08,15,11,12,24.90
2010,08,15,11,13,25.00
2010,08,15,11,14,25.10
2010,08,15,11,15,25.20
2010,08,15,11,16,25.30
2010,08,15,11,17,25.40
2010,08,15,11,18,25.50
2010,08,15,11,19,25.50
2010,08,15,11,20,25.40
2010,08,15,11,21,25.40
2010,08,15,11,22,25.40
2010,08,15,11,23,25.50
2010,08,15,11,24,25.50
2010,08,15,11,25,25.60
2010,08,15,11,26,25.70
2010,08,15,11,27,25.80
2010,08,15,11,28,25.90
2010,08,15,11,29,25.90
2010,08,15,11,30,25.90
2010,08,15,11,31,26.00
2010,08,15,11,32,26.20
2010,08,15,11,33,26.30
2010,08,15,11,34,26.30
2010,08,15,11,35,26.40
2010,08,15,11,36,26.30
2010,08,15,11,37,26.30
2010,08,15,11,38,26.40
2010,08,15,11,39,26.40
2010,08,15,11,40,26.50
2010,08,15,11,41,26.50
2010,08,15,11,42,26.50
2010,08,15,11,43,26.50
2010,08,15,11,44,26.50
2010,08,15,11,45,26.50
2010,08,15,11,46,26.60
2010,08,15,11,47,26.60
2010,08,15,11,48,26.60
2010,08,15,11,49,26.60
2010,08,15,11,50,26.70
2010,08,15,11,51,26.70
2010,08,15,11,52,26.80
2010,08,15,11,53,26.80
2010,08,15,11,54,26.90
2010,08,15,11,55,26.90
2010,08,15,11,56,26.80
2010,08,15,11,57,26.80
2010,08,15,11,58,26.80
2010,08,15,11,59,26.80
2010,08,15,12,00,26.90
2010,08,15,12,01,27.00
2010,08,15,12,02,27.10
2010,08,15,12,03,27.20
2010,08,15,12,04,27.30
2010,08,15,12,05,27.30
2010,08,15,12,06,27.30
2010,08,15,12,07,27.30
2010,08,15,12,08,27.30
2010,08,15,12,09,27.30
2010,08,15,12,10,27.30
2010,08,15,12,11,27.30
2010,08,15,12,12,27.30
2010,08,15,12,13,27.30
2010,08,15,12,14,27.20
2010,08,15,12,15,27.20
2010,08,15,12,16,27.20
2010,08,15,12,17,27.20
2010,08,15,12,18,27.20
2010,08,15,12,19,27.20
2010,08,15,12,20,27.10
2010,08,15,12,21,27.10
2010,08,15,12,22,27.10
2010,08,15,12,23,27.10
2010,08,15,12,24,27.20
2010,08,15,12,25,27.20
2010,08,15,12,26,27.30
2010,08,15,12,27,27.30
2010,08,15,12,28,27.30
2010,08,15,12,29,27.30
2010,08,15,12,30,27.30
2010,08,15,12,31,27.20
2010,08,15,12,32,27.20
2010,08,15,12,33,27.10
2010,08,15,12,34,27.10
2010,08,15,12,35,27.10
2010,08,15,12,36,27.10
2010,08,15,12,37,27.10
2010,08,15,12,38,27.10
2010,08,15,12,39,27.20
2010,08,15,12,40,27.30
2010,08,15,12,41,27.40
2010,08,15,12,42,27.50
2010,08,15,12,43,27.60
2010,08,15,12,44,27.60
2010,08,15,12,45,27.70
2010,08,15,12,46,27.70
2010,08,15,12,47,27.80
2010,08,15,12,48,27.80
2010,08,15,12,49,27.90
2010,08,15,12,50,27.90
2010,08,15,12,51,27.90
2010,08,15,12,52,28.00
2010,08,15,12,53,28.00
2010,08,15,12,54,28.00
2010,08,15,12,55,28.00
2010,08,15,12,56,28.00
2010,08,15,12,57,28.00
2010,08,15,12,58,27.90
2010,08,15,12,59,27.90
2010,08,15,13,00,27.90
2010,08,15,13,01,28.00
2010,08,15,13,02,28.00
2010,08,15,13,03,28.00
2010,08,15,13,04,28.00
2010,08,15,13,05,28.00
2010,08,15,13,06,28.00
2010,08,15,13,07,28.00
2010,08,15,13,08,28.00
2010,08,15,13,09,28.10
2010,08,15,13,10,28.10
2010,08,15,13,11,28.10
2010,08,15,13,12,28.20
2010,08,15,13,13,28.20
2010,08,15,13,14,28.20
2010,08,15,13,15,28.30
2010,08,15,13,16,28.30
2010,08,15,13,17,28.30
2010,08,15,13,18,28.20
2010,08,15,13,19,28.10
2010,08,15,13,20,28.00
2010,08,15,13,21,28.00
2010,08,15,13,22,27.90
2010,08,15,13,23,27.90
2010,08,15,13,24,27.90
2010,08,15,13,25,27.80
2010,08,15,13,26,27.80
2010,08,15,13,27,27.80
2010,08,15,13,28,27.90
2010,08,15,13,29,27.90
2010,08,15,13,30,27.90
2010,08,15,13,31,27.90
2010,08,15,13,32,28.00
2010,08,15,13,33,28.10
2010,08,15,13,34,28.20
2010,08,15,13,35,28.20
2010,08,15,13,36,28.20
2010,08,15,13,37,28.30
2010,08,15,13,38,28.30
2010,08,15,13,39,28.20
2010,08,15,13,40,28.30
2010,08,15,13,41,28.30
2010,08,15,13,42,28.40
2010,08,15,13,43,28.40
2010,08,15,13,44,28.40
2010,08,15,13,45,28.50
2010,08,15,13,46,28.60
2010,08,15,13,47,28.70
2010,08,15,13,48,28.70
2010,08,15,13,49,28.70
2010,08,15,13,50,28.70
2010,08,15,13,51,28.80
2010,08,15,13,52,28.80
2010,08,15,13,53,28.80
2010,08,15,13,54,28.80
2010,08,15,13,55,28.80
2010,08,15,13,56,28.90
2010,08,15,13,57,28.90
2010,08,15,13,58,28.90
2010,08,15,13,59,28.90
2010,08,15,14,00,28.90
2010,08,15,14,01,28.90
2010,08,15,14,02,29.00
2010,08,15,14,03,29.00
2010,08,15,14,04,29.10
2010,08,15,14,05,29.20
2010,08,15,14,06,29.30
2010,08,15,14,07,29.40
2010,08,15,14,08,29.50
2010,08,15,14,09,29.60
2010,08,15,14,10,29.70
2010,08,15,14,11,29.80
2010,08,15,14,12,29.80
2010,08,15,14,13,29.90
2010,08,15,14,14,30.00
2010,08,15,14,15,29.90
2010,08,15,14,16,29.90
2010,08,15,14,17,29.80
2010,08,15,14,18,29.80
2010,08,15,14,19,29.70
2010,08,15,14,20,29.70
2010,08,15,14,21,29.70
2010,08,15,14,22,29.70
2010,08,15,14,23,29.70
2010,08,15,14,24,29.80
2010,08,15,14,25,29.90
2010,08,15,14,26,29.90
2010,08,15,14,27,29.90
2010,08,15,14,28,29.90
2010,08,15,14,29,30.00
2010,08,15,14,30,30.10
2010,08,15,14,31,30.10
2010,08,15,14,32,30.10
2010,08,15,14,33,30.20
2010,08,15,14,34,30.20
2010,08,15,14,35,30.20
2010,08,15,14,36,30.30
2010,08,15,14,37,30.30
2010,08,15,14,38,30.30
2010,08,15,14,39,30.30
2010,08,15,14,40,30.30
2010,08,15,14,41,30.30
2010,08,15,14,42,30.30
2010,08,15,14,43,30.30
2010,08,15,14,44,30.30
2010,08,15,14,45,30.40
2010,08,15,14,46,30.40
2010,08,15,14,47,30.40
2010,08,15,14,48,30.50
2010,08,15,14,49,30.50
2010,08,15,14,50,30.60
2010,08,15,14,51,30.60
2010,08,15,14,52,30.60
2010,08,15,14,53,30.60
2010,08,15,14,54,30.70
2010,08,15,14,55,30.80
2010,08,15,14,56,30.80
2010,08,15,14,57,30.80
2010,08,15,14,58,30.80
2010,08,15,14,59,30.90
2010,08,15,15,00,30.90
2010,08,15,15,01,30.90
2010,08,15,15,02,31.00
2010,08,15,15,03,31.00
2010,08,15,15,04,31.00
2010,08,15,15,05,31.10
2010,08,15,15,06,31.10
2010,08,15,15,07,31.10
2010,08,15,15,08,31.10
2010,08,15,15,09,31.00
2010,08,15,15,10,31.00
2010,08,15,15,11,31.00
2010,08,15,15,12,31.00
2010,08,15,15,13,31.10
2010,08,15,15,14,31.20
2010,08,15,15,15,31.20
2010,08,15,15,16,31.20
2010,08,15,15,17,31.20
2010,08,15,15,18,31.20
2010,08,15,15,19,31.30
2010,08,15,15,20,31.30
2010,08,15,15,21,31.30
2010,08,15,15,22,31.30
2010,08,15,15,23,31.40
2010,08,15,15,24,31.40
2010,08,15,15,25,31.30
2010,08,15,15,26,31.30
2010,08,15,15,27,31.40
2010,08,15,15,28,31.50
2010,08,15,15,29,31.60
2010,08,15,15,30,31.70
2010,08,15,15,31,31.70
2010,08,15,15,32,31.80
2010,08,15,15,33,31.80
2010,08,15,15,34,31.80
2010,08,15,15,35,31.80
2010,08,15,15,36,31.80
2010,08,15,15,37,31.80
2010,08,15,15,38,31.80
2010,08,15,15,39,31.90
2010,08,15,15,40,31.90
2010,08,15,15,41,31.90
2010,08,15,15,42,31.90
2010,08,15,15,43,31.90
2010,08,15,15,44,31.90
2010,08,15,15,45,31.80
2010,08,15,15,46,31.70
2010,08,15,15,47,31.70
2010,08,15,15,48,31.70
2010,08,15,15,49,31.70
2010,08,15,15,50,31.70
2010,08,15,15,51,31.70
2010,08,15,15,52,31.70
2010,08,15,15,53,31.70
2010,08,15,15,54,31.70
2010,08,15,15,55,31.70
2010,08,15,15,56,31.80
2010,08,15,15,57,31.80
2010,08,15,15,58,31.80
2010,08,15,15,59,31.80
2010,08,15,16,00,31.80
2010,08,15,16,01,31.80
2010,08,15,16,02,31.80
2010,08,15,16,03,31.80
2010,08,15,16,04,31.80
2010,08,15,16,05,31.80
2010,08,15,16,06,31.80
2010,08,15,16,07,31.80
2010,08,15,16,08,31.80
2010,08,15,16,09,31.80
2010,08,15,16,10,31.80
2010,08,15,16,11,31.80
2010,08,15,16,12,31.80
2010,08,15,16,13,31.80
2010,08,15,16,14,31.70
2010,08,15,16,15,31.70
2010,08,15,16,16,31.60
2010,08,15,16,17,31.60
2010,08,15,16,18,31.70
2010,08,15,16,19,31.60
2010,08,15,16,20,31.60
2010,08,15,16,21,31.60
2010,08,15,16,22,31.60
2010,08,15,16,23,31.60
2010,08,15,16,24,31.70
2010,08,15,16,25,31.70
2010,08,15,16,26,31.80
2010,08,15,16,27,31.90
2010,08,15,16,28,32.00
2010,08,15,16,29,32.10
2010,08,15,16,30,32.10
2010,08,15,16,31,32.10
2010,08,15,16,32,32.10
2010,08,15,16,33,32.10
2010,08,15,16,34,32.10
2010,08,15,16,35,32.10
2010,08,15,16,36,32.00
2010,08,15,16,37,32.00
2010,08,15,16,38,31.90
2010,08,15,16,39,31.90
2010,08,15,16,40,31.90
2010,08,15,16,41,31.90
2010,08,15,16,42,31.90
2010,08,15,16,43,31.90
2010,08,15,16,44,31.90
2010,08,15,16,45,31.90
2010,08,15,16,46,31.90
2010,08,15,16,47,32.00
2010,08,15,16,48,32.10
2010,08,15,16,49,32.10
2010,08,15,16,50,32.10
2010,08,15,16,51,32.10
2010,08,15,16,52,32.10
2010,08,15,16,53,32.10
2010,08,15,16,54,32.10
2010,08,15,16,55,32.10
2010,08,15,16,56,32.20
2010,08,15,16,57,32.30
2010,08,15,16,58,32.30
2010,08,15,16,59,32.40
2010,08,15,17,00,32.50
2010,08,15,17,01,32.60
2010,08,15,17,02,32.70
2010,08,15,17,03,32.80
2010,08,15,17,04,32.90
2010,08,15,17,05,33.00
2010,08,15,17,06,33.00
2010,08,15,17,07,33.00
2010,08,15,17,08,32.90
2010,08,15,17,09,32.90
2010,08,15,17,10,33.00
2010,08,15,17,11,33.10
2010,08,15,17,12,33.10
2010,08,15,17,13,33.10
2010,08,15,17,14,33.20
2010,08,15,17,15,33.20
2010,08,15,17,16,33.30
2010,08,15,17,17,33.40
2010,08,15,17,18,33.50
2010,08,15,17,19,33.60